TimeEDT,TemperatureF,Dew PointF,Humidity,Sea Level PressureIn,VisibilityMPH,Wind Direction,Wind SpeedMPH,Gust SpeedMPH,PrecipitationIn,Events,Conditions,WindDirDegrees,DateUTC
12:54 AM,43.0,39.9,89,30.24,-9999.0,Calm,Calm,-,N/A,,Unknown,0,2013-05-06 04:54:00
1:54 AM,42.1,37.9,85,30.23,-9999.0,Calm,Calm,-,N/A,,Unknown,0,2013-05-06 05:54:00
2:54 AM,41.0,37.9,89,30.22,-9999.0,Calm,Calm,-,N/A,,Unknown,0,2013-05-06 06:54:00
3:54 AM,39.9,39.0,97,30.22,-9999.0,Calm,Calm,-,N/A,,Unknown,0,2013-05-06 07:54:00
4:54 AM,43.0,41.0,93,30.22,-9999.0,Calm,Calm,-,N/A,,Unknown,0,2013-05-06 08:54:00
5:54 AM,45.0,42.1,90,30.23,-9999.0,Calm,Calm,-,N/A,,Unknown,0,2013-05-06 09:54:00
6:54 AM,46.0,43.0,89,30.25,-9999.0,Calm,Calm,-,N/A,,Unknown,0,2013-05-06 10:54:00
7:54 AM,48.0,44.1,86,30.26,-9999.0,Calm,Calm,-,N/A,,Unknown,0,2013-05-06 11:54:00
8:54 AM,52.0,44.1,74,30.26,-9999.0,Calm,Calm,-,N/A,,Unknown,0,2013-05-06 12:54:00
9:54 AM,57.0,44.1,62,30.25,-9999.0,Variable,3.5,-,N/A,,Unknown,0,2013-05-06 13:54:00
10:54 AM,59.0,43.0,55,30.25,-9999.0,NW,3.5,-,N/A,,Unknown,310,2013-05-06 14:54:00
11:54 AM,62.1,44.1,52,30.24,-9999.0,Variable,3.5,-,N/A,,Unknown,0,2013-05-06 15:54:00
12:54 PM,64.0,45.0,50,30.21,-9999.0,Variable,3.5,-,N/A,,Unknown,0,2013-05-06 16:54:00
1:54 PM,68.0,46.9,47,30.19,-9999.0,Variable,4.6,-,N/A,,Unknown,0,2013-05-06 17:54:00
2:54 PM,69.1,46.9,45,30.17,-9999.0,Variable,4.6,-,N/A,,Unknown,0,2013-05-06 18:54:00
3:54 PM,70.0,48.9,47,30.15,-9999.0,Variable,3.5,-,N/A,,Unknown,0,2013-05-06 19:54:00
4:54 PM,70.0,48.0,46,30.13,-9999.0,Calm,Calm,-,N/A,,Unknown,0,2013-05-06 20:54:00
5:54 PM,68.0,50.0,52,30.14,-9999.0,Variable,6.9,-,N/A,,Unknown,0,2013-05-06 21:54:00
6:54 PM,66.0,51.1,59,30.14,-9999.0,SSE,4.6,-,N/A,,Unknown,150,2013-05-06 22:54:00
7:54 PM,62.1,51.1,67,30.16,-9999.0,SSW,4.6,-,N/A,,Unknown,200,2013-05-06 23:54:00
8:54 PM,59.0,50.0,72,30.17,-9999.0,Variable,3.5,-,N/A,,Unknown,0,2013-05-07 00:54:00
9:54 PM,55.0,50.0,83,30.18,-9999.0,Calm,Calm,-,N/A,,Unknown,0,2013-05-07 01:54:00
10:54 PM,52.0,48.0,86,30.17,-9999.0,Calm,Calm,-,N/A,,Unknown,0,2013-05-07 02:54:00
11:54 PM,51.1,48.0,89,30.17,-9999.0,Calm,Calm,-,N/A,,Unknown,0,2013-05-07 03:54:00